Location: Plymouth Village
(34.0436°N, 117.1717°W)
Time: 03:04:49
(UTC+00:00)

Cosmos 1939 Rocket - Pass Details

Date: 10 September 2024
Orbit: 510 x 550 km, 97.5° (Epoch: 06 October)

Event Time Altitude Azimuth Distance (km) Brightness Sun altitude
Rises 12:43:58 0° 3° (N) 2,735 6.6 -10.0°
Reaches altitude 10° 12:46:11 10° 356° (N) 1,839 5.6 -9.6°
Maximum altitude 12:49:56 41° 286° (WNW) 814 3.3 -8.8°
Drops below altitude 10° 12:53:40 10° 215° (SW) 1,826 5.1 -8.1°
Sets 12:55:51 0° 208° (SSW) 2,713 6.0 -7.6°
